When you browse on this site, cookies collect data to enhance your experience and personalize the content and advertising you see.
Visit our Privacy Policy to learn more. By continuing to use the site, you agree to this use of cookies and data.
  • In Deutschland
  • Länderverzeichnis
  • Für 7 Tage
  • Wassertemperatur
  • Wetterkarte
  • Widgets
  • user-avatar
    Anmelden

    Stündliche Wetter Annaba

    Heute, 25 Februar, Dienstag

    Zeit Temperatur Niederschläge Wind Luftdruck Luftfeuchtigkeit
    00:00 +12°C° 0 mm 1 m/S 765 mmHg 61%
    01:00 +12°C° 0 mm 1 m/S 764 mmHg 59%
    02:00 +12°C° 0 mm 1 m/S 764 mmHg 60%
    03:00 +12°C° 0 mm 1 m/S 763 mmHg 60%
    04:00 +12°C° 0 mm 1 m/S 762 mmHg 60%
    05:00 +12°C° 0 mm 1 m/S 763 mmHg 61%
    06:00 +12°C° 0 mm 1 m/S 763 mmHg 61%
    07:00 +12°C° 0 mm 1 m/S 763 mmHg 62%
    08:00 +15°C° 0 mm 1 m/S 762 mmHg 58%
    09:00 +18°C° 0 mm 1 m/S 762 mmHg 53%
    10:00 +21°C° 0 mm 1 m/S 762 mmHg 49%
    11:00 +21°C° 0 mm 2 m/S 762 mmHg 45%
    12:00 +23°C° 0 mm 2 m/S 761 mmHg 41%
    13:00 +24°C° 0 mm 3 m/S 761 mmHg 37%
    14:00 +22°C° 0 mm 3 m/S 760 mmHg 39%
    15:00 +22°C° 0 mm 3 m/S 760 mmHg 41%
    16:00 +21°C° 0 mm 3 m/S 759 mmHg 43%
    17:00 +19°C° 0 mm 3 m/S 759 mmHg 51%
    18:00 +17°C° 0 mm 3 m/S 759 mmHg 59%
    19:00 +14°C° 0 mm 2 m/S 759 mmHg 67%
    20:00 +13°C° 0 mm 3 m/S 759 mmHg 67%
    21:00 +13°C° 0 mm 3 m/S 760 mmHg 67%
    22:00 +13°C° 0 mm 3 m/S 760 mmHg 68%
    23:00 +13°C° 0 mm 3 m/S 760 mmHg 66%

    Morgen, 26 Februar, Mittwoch

    Zeit Temperatur Niederschläge Wind Luftdruck Luftfeuchtigkeit
    00:00 +12°C° 0 mm 4 m/S 760 mmHg 65%
    01:00 +12°C° 0 mm 4 m/S 760 mmHg 64%
    02:00 +12°C° 0 mm 4 m/S 759 mmHg 69%
    03:00 +12°C° 0 mm 5 m/S 759 mmHg 75%
    04:00 +12°C° 0 mm 5 m/S 759 mmHg 80%
    05:00 +12°C° 0 mm 5 m/S 759 mmHg 81%
    06:00 +12°C° 0 mm 4 m/S 759 mmHg 82%
    07:00 +11°C° 0 mm 4 m/S 759 mmHg 83%
    08:00 +13°C° 0.1 mm 4 m/S 759 mmHg 79%
    09:00 +15°C° 0.1 mm 5 m/S 760 mmHg 75%
    10:00 +16°C° 0.1 mm 5 m/S 760 mmHg 71%
    11:00 +17°C° 0.1 mm 6 m/S 760 mmHg 68%
    12:00 +18°C° 0.1 mm 7 m/S 760 mmHg 65%
    13:00 +18°C° 0.1 mm 7 m/S 760 mmHg 61%
    14:00 +18°C° 0 mm 8 m/S 760 mmHg 61%
    15:00 +17°C° 0 mm 8 m/S 759 mmHg 61%
    16:00 +17°C° 0 mm 8 m/S 759 mmHg 61%
    17:00 +16°C° 0 mm 8 m/S 759 mmHg 65%
    18:00 +14°C° 0 mm 7 m/S 760 mmHg 70%
    19:00 +12°C° 0 mm 7 m/S 760 mmHg 75%
    20:00 +12°C° 0 mm 7 m/S 761 mmHg 76%
    21:00 +11°C° 0 mm 7 m/S 762 mmHg 76%
    22:00 +11°C° 0 mm 7 m/S 762 mmHg 77%
    23:00 +10°C° 0.1 mm 6 m/S 763 mmHg 79%

    übermorgen, 27 Februar, Donnerstag

    Zeit Temperatur Niederschläge Wind Luftdruck Luftfeuchtigkeit
    00:00 +10°C° 0.1 mm 5 m/S 763 mmHg 81%
    01:00 +10°C° 0.1 mm 4 m/S 763 mmHg 82%
    02:00 +10°C° 0.2 mm 4 m/S 763 mmHg 84%
    03:00 +10°C° 0.2 mm 3 m/S 763 mmHg 85%
    04:00 +10°C° 0.2 mm 2 m/S 763 mmHg 86%
    05:00 +10°C° 0.1 mm 2 m/S 763 mmHg 86%
    06:00 +9°C° 0.1 mm 2 m/S 763 mmHg 87%
    07:00 +9°C° 0.1 mm 2 m/S 764 mmHg 88%
    08:00 +12°C° 0 mm 2 m/S 764 mmHg 80%
    09:00 +13°C° 0 mm 2 m/S 764 mmHg 73%
    10:00 +14°C° 0 mm 3 m/S 764 mmHg 66%
    11:00 +16°C° 0 mm 3 m/S 764 mmHg 62%
    12:00 +17°C° 0 mm 4 m/S 764 mmHg 59%
    13:00 +18°C° 0 mm 4 m/S 764 mmHg 55%
    14:00 +18°C° 0 mm 4 m/S 763 mmHg 55%
    15:00 +18°C° 0 mm 4 m/S 763 mmHg 55%
    16:00 +17°C° 0 mm 5 m/S 763 mmHg 55%
    17:00 +15°C° 0 mm 4 m/S 763 mmHg 61%
    18:00 +13°C° 0 mm 3 m/S 763 mmHg 67%
    19:00 +13°C° 0 mm 2 m/S 763 mmHg 74%
    20:00 +12°C° 0 mm 2 m/S 764 mmHg 74%
    21:00 +12°C° 0 mm 2 m/S 764 mmHg 74%
    22:00 +12°C° 0 mm 2 m/S 764 mmHg 74%
    23:00 +12°C° 0 mm 2 m/S 764 mmHg 74%

    28 Februar, Freitag

    Zeit Temperatur Niederschläge Wind Luftdruck Luftfeuchtigkeit
    00:00 +10°C° 0 mm 2 m/S 764 mmHg 74%
    01:00 +10°C° 0 mm 3 m/S 764 mmHg 74%
    02:00 +10°C° 0 mm 3 m/S 764 mmHg 73%
    03:00 +10°C° 0 mm 3 m/S 764 mmHg 72%
    04:00 +10°C° 0 mm 3 m/S 763 mmHg 72%
    05:00 +10°C° 0 mm 3 m/S 763 mmHg 71%
    06:00 +10°C° 0 mm 3 m/S 764 mmHg 70%
    07:00 +10°C° 0 mm 3 m/S 764 mmHg 69%
    08:00 +13°C° 0 mm 3 m/S 764 mmHg 63%
    09:00 +16°C° 0 mm 3 m/S 764 mmHg 56%
    10:00 +18°C° 0 mm 3 m/S 764 mmHg 49%
    11:00 +19°C° 0 mm 3 m/S 764 mmHg 47%
    12:00 +20°C° 0 mm 3 m/S 764 mmHg 44%
    13:00 +21°C° 0 mm 4 m/S 764 mmHg 41%
    14:00 +21°C° 0 mm 4 m/S 763 mmHg 44%
    15:00 +21°C° 0 mm 4 m/S 763 mmHg 46%
    16:00 +21°C° 0 mm 4 m/S 763 mmHg 48%
    17:00 +18°C° 0 mm 3 m/S 763 mmHg 57%
    18:00 +16°C° 0 mm 2 m/S 763 mmHg 66%
    19:00 +14°C° 0 mm 1 m/S 763 mmHg 75%
    20:00 +14°C° 0 mm 1 m/S 763 mmHg 75%
    21:00 +13°C° 0 mm 1 m/S 763 mmHg 75%
    22:00 +13°C° 0 mm 1 m/S 764 mmHg 75%
    23:00 +13°C° 0 mm 2 m/S 763 mmHg 73%

    29 Februar, Samstag

    Zeit Temperatur Niederschläge Wind Luftdruck Luftfeuchtigkeit
    00:00 +13°C° 0 mm 2 m/S 763 mmHg 71%
    01:00 +13°C° 0 mm 2 m/S 762 mmHg 70%
    02:00 +13°C° 0 mm 2 m/S 762 mmHg 68%
    03:00 +13°C° 0 mm 2 m/S 761 mmHg 65%
    04:00 +13°C° 0 mm 2 m/S 761 mmHg 63%
    05:00 +12°C° 0 mm 2 m/S 760 mmHg 61%
    06:00 +12°C° 0 mm 2 m/S 760 mmHg 60%
    07:00 +12°C° 0 mm 2 m/S 760 mmHg 58%
    08:00 +15°C° 0 mm 2 m/S 760 mmHg 54%
    09:00 +17°C° 0 mm 2 m/S 760 mmHg 50%
    10:00 +19°C° 0 mm 2 m/S 760 mmHg 47%
    11:00 +21°C° 0 mm 2 m/S 760 mmHg 44%
    12:00 +23°C° 0 mm 2 m/S 759 mmHg 41%
    13:00 +25°C° 0 mm 3 m/S 759 mmHg 38%
    14:00 +24°C° 0 mm 3 m/S 759 mmHg 40%
    15:00 +23°C° 0 mm 4 m/S 758 mmHg 42%
    16:00 +22°C° 0 mm 4 m/S 758 mmHg 44%
    17:00 +20°C° 0 mm 4 m/S 759 mmHg 49%
    18:00 +18°C° 0 mm 4 m/S 759 mmHg 55%
    19:00 +16°C° 0 mm 3 m/S 759 mmHg 61%
    20:00 +14°C° 0 mm 3 m/S 760 mmHg 61%
    21:00 +14°C° 0 mm 3 m/S 760 mmHg 62%
    22:00 +14°C° 0 mm 3 m/S 760 mmHg 63%
    23:00 +13°C° 0 mm 3 m/S 760 mmHg 62%

    1 März, Sonntag

    Zeit Temperatur Niederschläge Wind Luftdruck Luftfeuchtigkeit
    00:00 +13°C° 0 mm 3 m/S 760 mmHg 62%
    01:00 +13°C° 0 mm 3 m/S 760 mmHg 62%
    02:00 +13°C° 0 mm 3 m/S 760 mmHg 62%
    03:00 +13°C° 0 mm 3 m/S 760 mmHg 62%
    04:00 +13°C° 0 mm 3 m/S 760 mmHg 62%
    05:00 +13°C° 0 mm 3 m/S 760 mmHg 61%
    06:00 +13°C° 0 mm 3 m/S 760 mmHg 61%
    07:00 +13°C° 0 mm 4 m/S 760 mmHg 60%
    08:00 +14°C° 0 mm 4 m/S 760 mmHg 60%
    09:00 +17°C° 0 mm 4 m/S 761 mmHg 60%
    10:00 +19°C° 0 mm 5 m/S 761 mmHg 60%
    11:00 +19°C° 0 mm 5 m/S 761 mmHg 60%
    12:00 +20°C° 0 mm 5 m/S 761 mmHg 59%
    13:00 +21°C° 0 mm 6 m/S 761 mmHg 59%
    14:00 +20°C° 0 mm 6 m/S 761 mmHg 61%
    15:00 +20°C° 0 mm 5 m/S 760 mmHg 63%
    16:00 +20°C° 0 mm 5 m/S 760 mmHg 65%
    17:00 +18°C° 0 mm 4 m/S 760 mmHg 72%
    18:00 +17°C° 0 mm 4 m/S 761 mmHg 79%
    19:00 +14°C° 0 mm 3 m/S 761 mmHg 86%
    20:00 +14°C° 0 mm 3 m/S 761 mmHg 86%
    21:00 +14°C° 0 mm 3 m/S 762 mmHg 87%
    22:00 +14°C° 0 mm 2 m/S 762 mmHg 87%
    23:00 +14°C° 0 mm 2 m/S 762 mmHg 87%
    Mehr zeigen